[[{"header":{"parameterUnit":"m.s-1","parameterCategory":1,"la1":30.2992,"la2":30.254,"lo1":-89.0895,"lo2":-89.0443,"dy":0.0025,"dx":0.0025,"nx":19,"ny":19,"refTime":"2026-03-06T03:00:00:Z","depth":0,"parameterNumber":2,"parameterNumberName":"U-component_of_WINDS"},"data":[0,0,0,-4.8022,-4.8023,-4.8092,-4.8092,-4.8202,-4.8203,0,0,0,0,0,0,0,0,0,0,0,-4.8014,-4.8016,-4.8021,-4.8023,-4.8092,-4.8092,-4.8202,-4.8203,0,0,0,0,0,0,0,0,0,0,0,-4.8014,-4.8015,-4.8017,-4.8024,-4.8092,-4.8092,-4.8202,-4.8142,0,0,0,0,0,0,0,0,0,0,-4.8072,-4.8078,-4.8015,-4.8017,-4.8024,-4.8092,-4.8092,-4.8139,-4.8146,-4.8181,0,-4.8215,0,-4.8212,-4.8212,-4.8213,0,0,0,-4.8013,-4.8072,-4.8079,-4.8017,-4.8025,-4.8091,-4.8058,-4.8143,-4.815,-4.8191,-4.8217,-4.822,-4.8213,-4.8213,-4.8214,-4.8451,-4.8453,0,0,-4.801,-4.8033,-4.8074,-4.8085,-4.8075,-4.8056,-4.806,-4.8147,-4.8177,-4.8217,-4.8222,-4.8215,-4.8214,-4.8215,-4.8449,-4.8451,0,0,0,-4.8006,-4.8031,-4.8035,-4.8081,-4.8091,-4.8058,-4.8063,-4.8173,-4.8172,-4.8223,-4.8216,-4.8215,-4.8216,-4.8448,-4.845,-4.855,0,0,0,-4.8003,-4.8029,-4.8034,-4.8049,-4.809,-4.8133,-4.8088,-4.8167,-4.8175,-4.8216,-4.8215,-4.8218,-4.8446,-4.8449,-4.8544,-4.8593,0,0,0,-4.8005,-4.8029,-4.8043,-4.8051,-4.8081,-4.8131,-4.8135,-4.8168,-4.8172,-4.8213,-4.8218,-4.8445,-4.8448,-4.8538,-4.8583,-4.8662,0,0,0,-4.8015,-4.813,-4.8045,-4.8173,-4.8081,-4.8193,-4.8134,-4.8217,-4.8264,-4.8216,-4.8446,-4.845,-4.8536,-4.8577,-4.8656,-4.8732,-4.8766,0,0,-4.8174,-4.815,-4.8223,-4.8149,-4.8283,-4.8181,-4.833,-4.835,-4.8332,-4.8413,-4.8418,-4.8546,-4.8582,-4.8661,-4.8952,-4.898,0,0,0,-4.8282,-4.8334,-4.8365,-4.8412,-4.8432,-4.8453,-4.8448,-4.8457,-4.8524,-4.8378,-4.8596,-4.8617,-4.8662,-4.8697,-4.872,-4.8757,-4.8468,-4.8467,-4.8467,-4.8538,-4.8511,-4.8631,-4.8613,-4.866,-4.8657,-4.8692,-4.8703,-4.866,-4.8713,-4.8735,-4.8916,-4.8958,-4.8975,-4.9014,-4.8775,-4.8776,-4.8776,-4.8776,-4.8767,-4.8837,-4.8783,-4.8878,-4.8851,-4.8931,-4.8935,-4.8903,-4.8975,-4.8896,-4.8934,-4.8848,-4.9006,-4.9038,-4.8784,-4.8782,-4.8781,-4.8781,-4.878,-4.8929,-4.8958,-4.8969,-4.9036,-4.9092,-4.9072,-4.9144,-4.9116,-4.909,-4.9129,-4.915,-4.9148,-4.9142,-4.9142,-4.9142,-4.9143,-4.9143,-4.9144,-4.9144,-4.9093,-4.9101,-4.9165,-4.92,-4.9229,-4.9263,-4.9265,-4.9292,-4.9316,-4.929,-4.929,-4.9243,-4.9027,-4.8972,-4.9154,-4.9152,-4.9151,-4.915,-4.9149,-4.933,-4.9273,-4.9372,-4.9402,-4.9442,-4.9501,-4.9466,-4.9526,-4.9545,-4.9582,-4.9529,-4.9375,-4.9348,-4.9329,-4.9284,-4.9535,-4.9535,-4.9535,-4.9535,-4.9466,-4.9451,-4.9548,-4.9597,-4.9642,-4.9622,-4.9737,-4.9743,-4.9739,-4.9749,-4.971,-4.9648,-4.9631,-4.9614,-4.959,-4.9546,-4.9859,-4.9859,-4.9859,-4.961,-4.96,-4.9701,-4.9698,-4.9729,-4.9757,-4.9865,-4.9924,-4.9908,-4.9872,-4.9757,-4.9744,-4.9644,-4.9613,-4.9568,-4.9531,-4.9451,0,0]},{"header":{"parameterUnit":"m.s-1","parameterCategory":1,"la1":30.2992,"la2":30.254,"lo1":-89.0895,"lo2":-89.0443,"dy":0.0025,"dx":0.0025,"nx":19,"ny":19,"refTime":"2026-03-06T03:00:00:Z","depth":0,"parameterNumber":3,"parameterNumberName":"V-component_of_WINDS"},"data":[0,0,0,1.6897,1.6897,1.6919,1.6919,1.6941,1.6941,0,0,0,0,0,0,0,0,0,0,0,1.6888,1.6888,1.6897,1.6897,1.6919,1.6919,1.6941,1.6941,0,0,0,0,0,0,0,0,0,0,0,1.6888,1.6888,1.6888,1.6897,1.6919,1.6919,1.6941,1.6926,0,0,0,0,0,0,0,0,0,0,1.6906,1.6895,1.6888,1.6888,1.6898,1.6919,1.6919,1.6926,1.6927,1.6929,0,1.6931,0,1.6937,1.6942,1.6942,0,0,0,1.6899,1.6894,1.6903,1.6888,1.6898,1.6919,1.6909,1.6927,1.6928,1.6931,1.6931,1.6932,1.6937,1.6942,1.6942,1.6954,1.6954,0,0,1.6898,1.689,1.6902,1.6904,1.6901,1.6909,1.691,1.6928,1.6927,1.6931,1.6933,1.6937,1.6942,1.6943,1.6954,1.6954,0,0,0,1.6893,1.6889,1.6897,1.6903,1.6907,1.6909,1.6911,1.6926,1.6929,1.6933,1.6937,1.6943,1.6943,1.6954,1.6954,1.6947,0,0,0,1.6893,1.6886,1.6896,1.6892,1.6907,1.6917,1.6909,1.6928,1.693,1.6937,1.6943,1.6943,1.6954,1.6954,1.6947,1.6944,0,0,0,1.6887,1.6886,1.6888,1.6891,1.6901,1.6917,1.6921,1.6929,1.6933,1.6942,1.6943,1.6954,1.6954,1.6947,1.6945,1.6947,0,0,0,1.6879,1.6879,1.6888,1.689,1.69,1.6913,1.6921,1.693,1.6937,1.6943,1.6954,1.6954,1.6947,1.6945,1.6947,1.6947,1.6947,0,0,1.6874,1.6878,1.688,1.6889,1.6899,1.691,1.6919,1.6931,1.6938,1.6948,1.6948,1.6947,1.6945,1.6947,1.6945,1.6945,0,0,0,1.6876,1.6878,1.6882,1.689,1.6902,1.6912,1.6925,1.6931,1.694,1.6942,1.6948,1.6947,1.6949,1.6949,1.6949,1.6951,1.6953,1.6953,1.6953,1.6857,1.6869,1.6875,1.689,1.6898,1.6914,1.6921,1.6931,1.6938,1.694,1.6942,1.6941,1.6941,1.6941,1.6943,1.6943,1.6943,1.6943,1.6943,1.6853,1.6857,1.6872,1.6882,1.6895,1.6903,1.692,1.6925,1.6935,1.6938,1.694,1.6943,1.694,1.6943,1.6943,1.6943,1.6943,1.6943,1.6943,1.6841,1.6846,1.6855,1.6871,1.6882,1.6898,1.6908,1.6919,1.6929,1.6931,1.6936,1.6936,1.6939,1.6933,1.6933,1.6933,1.6933,1.6933,1.6933,1.6826,1.6837,1.6845,1.6861,1.687,1.6883,1.6902,1.6911,1.6923,1.693,1.693,1.6938,1.6937,1.6937,1.6933,1.6933,1.6933,1.6933,1.6933,1.6817,1.6822,1.6834,1.6844,1.6866,1.6878,1.6893,1.6911,1.6919,1.6925,1.6934,1.6932,1.6935,1.6935,1.6935,1.693,1.693,1.693,1.693,1.6808,1.6812,1.683,1.6845,1.686,1.6877,1.6892,1.6908,1.6925,1.6932,1.6934,1.6935,1.6935,1.6939,1.6939,1.694,1.6936,1.6936,1.6936,1.6803,1.6811,1.6821,1.6841,1.686,1.6876,1.6892,1.6908,1.6928,1.6936,1.6938,1.6937,1.6939,1.6939,1.6945,1.6945,1.6946,0,0]}]]